Time,TemperatureF,DewpointF,PressureIn,WindDirection,WindDirectionDegrees,WindSpeedMPH,WindSpeedGustMPH,Humidity,HourlyPrecipIn,Conditions,Clouds,dailyrainin,SoftwareType,DateUTC
2013-02-03 00:02:00,4.6,-1.3,30.03,WSW,238,0.0,1.0,76,0.00,,---,0.00,VWS V13.01,2013-02-03 06:02:00,
2013-02-03 00:07:00,4.6,-1.6,30.03,WSW,238,0.0,2.0,75,0.00,,---,0.00,VWS V13.01,2013-02-03 06:07:00,
2013-02-03 00:12:00,4.6,-1.6,30.03,WSW,238,0.0,2.0,75,0.00,,---,0.00,VWS V13.01,2013-02-03 06:12:00,
2013-02-03 00:17:00,4.6,-1.6,30.03,WSW,238,0.0,2.0,75,0.00,,---,0.00,VWS V13.01,2013-02-03 06:17:00,
2013-02-03 00:22:00,4.6,-1.3,30.03,WSW,238,0.0,2.0,76,0.00,,---,0.00,VWS V13.01,2013-02-03 06:22:00,
2013-02-03 00:27:00,4.5,-1.7,30.03,WSW,252,0.0,2.0,75,0.00,,---,0.00,VWS V13.01,2013-02-03 06:27:00,
2013-02-03 00:32:00,4.5,-1.7,30.02,WSW,248,0.0,0.0,75,0.00,,---,0.00,VWS V13.01,2013-02-03 06:32:00,
2013-02-03 00:37:00,4.5,-1.4,30.02,WSW,248,0.0,1.0,76,0.00,,---,0.00,VWS V13.01,2013-02-03 06:37:00,
2013-02-03 00:42:00,4.5,-1.4,30.02,WSW,248,1.0,1.0,76,0.00,,---,0.00,VWS V13.01,2013-02-03 06:42:00,
2013-02-03 00:47:00,4.5,-1.4,30.02,WSW,248,0.0,1.0,76,0.00,,---,0.00,VWS V13.01,2013-02-03 06:47:00,
2013-02-03 00:52:00,4.5,-1.4,30.02,SW,229,0.0,3.0,76,0.00,,---,0.00,VWS V13.01,2013-02-03 06:52:00,
2013-02-03 00:57:00,4.6,-1.6,30.01,WSW,248,1.0,3.0,75,0.00,,---,0.00,VWS V13.01,2013-02-03 06:57:00,
2013-02-03 01:02:00,4.6,-1.6,30.01,SW,233,1.0,2.0,75,0.00,,---,0.00,VWS V13.01,2013-02-03 07:02:00,
2013-02-03 01:07:00,4.5,-1.7,30.01,West,271,2.0,2.0,75,0.00,,---,0.00,VWS V13.01,2013-02-03 07:07:00,
2013-02-03 01:12:00,4.5,-1.7,30.01,West,271,1.0,2.0,75,0.00,,---,0.00,VWS V13.01,2013-02-03 07:12:00,
2013-02-03 01:18:00,4.5,-1.4,30.00,West,264,0.0,2.0,76,0.00,,---,0.00,VWS V13.01,2013-02-03 07:18:00,
2013-02-03 01:23:00,4.5,-1.4,30.00,West,264,0.0,2.0,76,0.00,,---,0.00,VWS V13.01,2013-02-03 07:23:00,
2013-02-03 01:28:00,4.5,-1.4,30.00,West,262,0.0,3.0,76,0.00,,---,0.00,VWS V13.01,2013-02-03 07:28:00,
2013-02-03 01:33:00,4.5,-1.4,30.00,West,262,0.0,0.0,76,0.00,,---,0.00,VWS V13.01,2013-02-03 07:33:00,
2013-02-03 01:38:00,4.5,-1.4,30.00,West,261,0.0,2.0,76,0.00,,---,0.00,VWS V13.01,2013-02-03 07:38:00,
2013-02-03 01:43:00,4.5,-1.4,30.00,West,261,0.0,2.0,76,0.00,,---,0.00,VWS V13.01,2013-02-03 07:43:00,
2013-02-03 01:48:00,4.5,-1.1,29.99,West,262,0.0,2.0,77,0.00,,---,0.00,VWS V13.01,2013-02-03 07:48:00,
2013-02-03 01:53:00,4.5,-1.1,29.99,West,267,0.0,2.0,77,0.00,,---,0.00,VWS V13.01,2013-02-03 07:53:00,
2013-02-03 01:58:00,4.5,-1.1,29.99,WSW,252,1.0,3.0,77,0.00,,---,0.00,VWS V13.01,2013-02-03 07:58:00,
2013-02-03 02:03:00,4.5,-0.8,29.99,WSW,248,1.0,1.0,78,0.00,,---,0.00,VWS V13.01,2013-02-03 08:03:00,
2013-02-03 02:08:00,4.5,-0.8,29.99,West,267,0.0,2.0,78,0.00,,---,0.00,VWS V13.01,2013-02-03 08:08:00,
2013-02-03 02:13:00,4.4,-0.9,29.98,West,279,1.0,2.0,78,0.00,,---,0.00,VWS V13.01,2013-02-03 08:13:00,
2013-02-03 02:18:00,4.4,-0.7,29.98,WSW,249,0.0,2.0,79,0.00,,---,0.00,VWS V13.01,2013-02-03 08:18:00,
2013-02-03 02:23:00,4.4,-0.7,29.98,WSW,249,1.0,2.0,79,0.00,,---,0.00,VWS V13.01,2013-02-03 08:23:00,
2013-02-03 02:28:00,4.4,-0.4,29.98,WSW,248,0.0,2.0,80,0.00,,---,0.00,VWS V13.01,2013-02-03 08:28:00,
2013-02-03 02:33:00,4.4,-0.4,29.98,WSW,252,1.0,3.0,80,0.00,,---,0.00,VWS V13.01,2013-02-03 08:33:00,
2013-02-03 02:38:00,4.4,-0.4,29.98,West,267,2.0,3.0,80,0.00,,---,0.00,VWS V13.01,2013-02-03 08:38:00,
2013-02-03 02:43:00,4.3,-0.5,29.98,WSW,257,1.0,3.0,80,0.00,,---,0.00,VWS V13.01,2013-02-03 08:43:00,
2013-02-03 02:48:00,4.3,-0.5,29.97,WNW,285,0.0,3.0,80,0.00,,---,0.00,VWS V13.01,2013-02-03 08:48:00,
2013-02-03 02:53:00,4.3,-0.5,29.97,West,271,0.0,3.0,80,0.00,,---,0.00,VWS V13.01,2013-02-03 08:53:00,
2013-02-03 02:58:00,4.2,-0.3,29.97,West,271,2.0,3.0,81,0.00,,---,0.00,VWS V13.01,2013-02-03 08:58:00,
2013-02-03 03:03:00,4.2,-0.6,29.96,WSW,257,0.0,3.0,80,0.00,,---,0.00,VWS V13.01,2013-02-03 09:03:00,
2013-02-03 03:08:00,4.2,-0.3,29.96,WSW,251,1.0,3.0,81,0.00,,---,0.00,VWS V13.01,2013-02-03 09:08:00,
2013-02-03 03:14:00,4.2,-0.3,29.96,West,279,0.0,3.0,81,0.00,,---,0.00,VWS V13.01,2013-02-03 09:14:00,
2013-02-03 03:19:00,4.1,-0.4,29.96,West,279,2.0,3.0,81,0.00,,---,0.00,VWS V13.01,2013-02-03 09:19:00,
2013-02-03 03:24:00,4.1,-0.4,29.95,WSW,246,2.0,3.0,81,0.00,,---,0.00,VWS V13.01,2013-02-03 09:24:00,
2013-02-03 03:29:00,4.1,-0.4,29.95,West,259,0.0,3.0,81,0.00,,---,0.00,VWS V13.01,2013-02-03 09:29:00,
2013-02-03 03:34:00,4.1,-0.4,29.95,WSW,257,1.0,2.0,81,0.00,,---,0.00,VWS V13.01,2013-02-03 09:34:00,
2013-02-03 03:39:00,4.1,-0.4,29.95,West,279,0.0,3.0,81,0.00,,---,0.00,VWS V13.01,2013-02-03 09:39:00,
2013-02-03 03:44:00,4.1,-0.4,29.95,West,279,0.0,3.0,81,0.00,,---,0.00,VWS V13.01,2013-02-03 09:44:00,
2013-02-03 03:49:00,4.1,-0.4,29.95,West,276,0.0,3.0,81,0.00,,---,0.00,VWS V13.01,2013-02-03 09:49:00,
2013-02-03 03:54:00,4.1,-0.4,29.95,West,271,2.0,3.0,81,0.00,,---,0.00,VWS V13.01,2013-02-03 09:54:00,
2013-02-03 03:59:00,4.1,-0.4,29.95,SW,232,2.0,3.0,81,0.00,,---,0.00,VWS V13.01,2013-02-03 09:59:00,
2013-02-03 04:04:00,4.1,-0.4,29.95,West,275,1.0,2.0,81,0.00,,---,0.00,VWS V13.01,2013-02-03 10:04:00,
2013-02-03 04:09:00,4.1,-0.4,29.95,West,268,0.0,4.0,81,0.00,,---,0.00,VWS V13.01,2013-02-03 10:09:00,
2013-02-03 04:14:00,4.1,-0.4,29.94,West,268,0.0,4.0,81,0.00,,---,0.00,VWS V13.01,2013-02-03 10:14:00,
2013-02-03 04:19:00,4.1,-0.4,29.94,WSW,257,0.0,4.0,81,0.00,,---,0.00,VWS V13.01,2013-02-03 10:19:00,
2013-02-03 04:24:00,4.1,-0.4,29.94,WSW,257,3.0,4.0,81,0.00,,---,0.00,VWS V13.01,2013-02-03 10:24:00,
2013-02-03 04:29:00,4.1,-0.4,29.94,WSW,257,1.0,4.0,81,0.00,,---,0.00,VWS V13.01,2013-02-03 10:29:00,
2013-02-03 04:34:00,4.1,-0.4,29.94,WSW,257,0.0,2.0,81,0.00,,---,0.00,VWS V13.01,2013-02-03 10:34:00,
2013-02-03 04:39:00,4.1,-0.4,29.94,WSW,256,1.0,2.0,81,0.00,,---,0.00,VWS V13.01,2013-02-03 10:39:00,
2013-02-03 04:44:00,4.2,-0.3,29.94,WNW,302,0.0,3.0,81,0.00,,---,0.00,VWS V13.01,2013-02-03 10:44:00,
2013-02-03 04:49:00,4.2,-0.3,29.94,WNW,302,0.0,3.0,81,0.00,,---,0.00,VWS V13.01,2013-02-03 10:49:00,
2013-02-03 04:54:00,4.2,-0.3,29.94,WNW,302,0.0,3.0,81,0.00,,---,0.00,VWS V13.01,2013-02-03 10:54:00,
2013-02-03 04:59:00,4.2,-0.3,29.94,WNW,302,0.0,3.0,81,0.00,,---,0.00,VWS V13.01,2013-02-03 10:59:00,
2013-02-03 05:04:00,4.2,-0.3,29.94,WNW,302,0.0,1.0,81,0.00,,---,0.00,VWS V13.01,2013-02-03 11:04:00,
2013-02-03 05:09:00,4.2,-0.3,29.94,WNW,300,0.0,2.0,81,0.00,,---,0.00,VWS V13.01,2013-02-03 11:09:00,
2013-02-03 05:14:00,4.2,-0.3,29.94,WNW,299,0.0,2.0,81,0.00,,---,0.00,VWS V13.01,2013-02-03 11:14:00,
2013-02-03 05:19:00,4.2,-0.3,29.94,NW,311,1.0,3.0,81,0.00,,---,0.00,VWS V13.01,2013-02-03 11:19:00,
2013-02-03 05:24:00,4.2,-0.3,29.94,NW,311,0.0,3.0,81,0.00,,---,0.00,VWS V13.01,2013-02-03 11:24:00,
2013-02-03 05:29:00,4.2,-0.3,29.94,NW,309,0.0,3.0,81,0.00,,---,0.00,VWS V13.01,2013-02-03 11:29:00,
2013-02-03 05:34:00,4.2,-0.3,29.95,NW,309,0.0,1.0,81,0.00,,---,0.00,VWS V13.01,2013-02-03 11:34:00,
2013-02-03 05:39:00,4.2,-0.3,29.94,NW,309,0.0,1.0,81,0.00,,---,0.00,VWS V13.01,2013-02-03 11:39:00,
2013-02-03 05:45:00,4.2,-0.3,29.94,NW,309,1.0,1.0,81,0.00,,---,0.00,VWS V13.01,2013-02-03 11:45:00,
2013-02-03 05:50:00,4.3,-0.2,29.94,NNW,338,1.0,1.0,81,0.00,,---,0.00,VWS V13.01,2013-02-03 11:50:00,
2013-02-03 05:55:00,4.3,-0.2,29.94,NNW,338,0.0,1.0,81,0.00,,---,0.00,VWS V13.01,2013-02-03 11:55:00,
2013-02-03 06:00:00,4.4,-0.1,29.94,NNW,338,1.0,1.0,81,0.00,,---,0.00,VWS V13.01,2013-02-03 12:00:00,
2013-02-03 06:05:00,4.4,-0.1,29.94,SW,215,1.0,1.0,81,0.00,,---,0.00,VWS V13.01,2013-02-03 12:05:00,
2013-02-03 06:10:00,4.5,0.0,29.94,WNW,292,0.0,1.0,81,0.00,,---,0.00,VWS V13.01,2013-02-03 12:10:00,
2013-02-03 06:15:00,4.5,0.0,29.94,West,281,0.0,2.0,81,0.00,,---,0.00,VWS V13.01,2013-02-03 12:15:00,
2013-02-03 06:20:00,4.5,0.0,29.94,West,279,0.0,2.0,81,0.00,,---,0.00,VWS V13.01,2013-02-03 12:20:00,
2013-02-03 06:25:00,4.5,0.0,29.94,WSW,242,3.0,5.0,81,0.00,,---,0.00,VWS V13.01,2013-02-03 12:25:00,
2013-02-03 06:30:00,4.5,0.0,29.94,West,263,0.0,5.0,81,0.00,,---,0.00,VWS V13.01,2013-02-03 12:30:00,
2013-02-03 06:35:00,4.6,0.1,29.94,WNW,282,0.0,2.0,81,0.00,,---,0.00,VWS V13.01,2013-02-03 12:35:00,
2013-02-03 06:40:00,4.6,0.1,29.94,NW,309,2.0,2.0,81,0.00,,---,0.00,VWS V13.01,2013-02-03 12:40:00,
2013-02-03 06:45:00,4.7,0.4,29.94,West,271,0.0,4.0,82,0.00,,---,0.00,VWS V13.01,2013-02-03 12:45:00,
2013-02-03 06:50:00,4.7,0.4,29.94,WNW,284,0.0,4.0,82,0.00,,---,0.00,VWS V13.01,2013-02-03 12:50:00,
2013-02-03 06:56:00,4.8,0.5,29.94,WNW,300,0.0,4.0,82,0.00,,---,0.00,VWS V13.01,2013-02-03 12:56:00,
2013-02-03 07:01:00,4.8,0.5,29.94,West,267,0.0,4.0,82,0.00,,---,0.00,VWS V13.01,2013-02-03 13:01:00,
2013-02-03 07:06:00,4.8,0.5,29.94,West,273,1.0,3.0,82,0.00,,---,0.00,VWS V13.01,2013-02-03 13:06:00,
2013-02-03 07:11:00,4.8,0.5,29.94,West,272,0.0,3.0,82,0.00,,---,0.00,VWS V13.01,2013-02-03 13:11:00,
2013-02-03 07:16:00,4.8,0.5,29.94,NNW,340,1.0,3.0,82,0.00,,---,0.00,VWS V13.01,2013-02-03 13:16:00,
2013-02-03 07:21:00,4.8,0.5,29.94,NNW,340,1.0,3.0,82,0.00,,---,0.00,VWS V13.01,2013-02-03 13:21:00,
2013-02-03 07:26:00,4.8,0.5,29.94,West,264,1.0,3.0,82,0.00,,---,0.00,VWS V13.01,2013-02-03 13:26:00,
2013-02-03 07:31:00,4.8,0.5,29.95,West,273,0.0,3.0,82,0.00,,---,0.00,VWS V13.01,2013-02-03 13:31:00,
2013-02-03 07:36:00,4.9,0.6,29.95,WNW,294,1.0,1.0,82,0.00,,---,0.00,VWS V13.01,2013-02-03 13:36:00,
2013-02-03 07:41:00,4.9,0.4,29.94,WNW,293,0.0,2.0,81,0.00,,---,0.00,VWS V13.01,2013-02-03 13:41:00,
2013-02-03 07:47:00,4.9,0.4,29.94,NNW,328,1.0,2.0,81,0.00,,---,0.00,VWS V13.01,2013-02-03 13:47:00,
2013-02-03 07:52:00,5.0,0.5,29.94,NW,306,0.0,2.0,81,0.00,,---,0.00,VWS V13.01,2013-02-03 13:52:00,
2013-02-03 07:57:00,5.1,0.6,29.94,West,281,1.0,3.0,81,0.00,,---,0.00,VWS V13.01,2013-02-03 13:57:00,
2013-02-03 08:02:00,5.2,0.6,29.94,WNW,296,1.0,1.0,81,0.00,,---,0.00,VWS V13.01,2013-02-03 14:02:00,
2013-02-03 08:07:00,5.3,0.8,29.94,NW,316,1.0,2.0,81,0.00,,---,0.00,VWS V13.01,2013-02-03 14:07:00,
2013-02-03 08:12:00,5.4,1.1,29.94,West,272,0.0,2.0,82,0.00,,---,0.00,VWS V13.01,2013-02-03 14:12:00,
2013-02-03 08:17:00,5.6,1.3,29.94,WNW,298,1.0,2.0,82,0.00,,---,0.00,VWS V13.01,2013-02-03 14:17:00,
2013-02-03 08:22:00,5.8,1.5,29.94,WNW,284,1.0,3.0,82,0.00,,---,0.00,VWS V13.01,2013-02-03 14:22:00,
2013-02-03 08:27:00,5.9,1.6,29.94,WNW,299,2.0,4.0,82,0.00,,---,0.00,VWS V13.01,2013-02-03 14:27:00,
2013-02-03 08:32:00,6.1,1.5,29.94,NW,309,1.0,4.0,81,0.00,,---,0.00,VWS V13.01,2013-02-03 14:32:00,
2013-02-03 08:37:00,6.3,1.7,29.94,WNW,298,2.0,3.0,81,0.00,,---,0.00,VWS V13.01,2013-02-03 14:37:00,
2013-02-03 08:42:00,6.5,1.9,29.94,NW,305,2.0,3.0,81,0.00,,---,0.00,VWS V13.01,2013-02-03 14:42:00,
2013-02-03 08:47:00,6.5,1.7,29.94,NW,309,1.0,3.0,80,0.00,,---,0.00,VWS V13.01,2013-02-03 14:47:00,
2013-02-03 08:52:00,6.3,1.5,29.94,NW,315,2.0,3.0,80,0.00,,---,0.00,VWS V13.01,2013-02-03 14:52:00,
2013-02-03 08:57:00,6.3,1.5,29.94,NW,310,2.0,4.0,80,0.00,,---,0.00,VWS V13.01,2013-02-03 14:57:00,
2013-02-03 09:02:00,6.4,1.6,29.94,NW,313,2.0,2.0,80,0.00,,---,0.00,VWS V13.01,2013-02-03 15:02:00,
2013-02-03 09:07:00,6.6,1.8,29.94,NW,313,2.0,3.0,80,0.00,,---,0.00,VWS V13.01,2013-02-03 15:07:00,
2013-02-03 09:12:00,6.9,2.0,29.94,NW,314,2.0,3.0,80,0.00,,---,0.00,VWS V13.01,2013-02-03 15:12:00,
2013-02-03 09:17:00,7.3,2.4,29.95,NW,314,2.0,3.0,80,0.00,,---,0.00,VWS V13.01,2013-02-03 15:17:00,
2013-02-03 09:22:00,7.6,2.5,29.95,NW,314,2.0,4.0,79,0.00,,---,0.00,VWS V13.01,2013-02-03 15:22:00,
2013-02-03 09:27:00,7.8,2.7,29.94,NW,314,3.0,4.0,79,0.00,,---,0.00,VWS V13.01,2013-02-03 15:27:00,
2013-02-03 09:32:00,8.0,2.8,29.95,NW,323,3.0,3.0,79,0.00,,---,0.00,VWS V13.01,2013-02-03 15:32:00,
2013-02-03 09:37:00,8.3,3.1,29.95,NW,319,4.0,4.0,79,0.00,,---,0.00,VWS V13.01,2013-02-03 15:37:00,
2013-02-03 09:42:00,8.5,3.1,29.95,NW,315,2.0,5.0,78,0.00,,---,0.00,VWS V13.01,2013-02-03 15:42:00,
2013-02-03 09:47:00,8.7,3.3,29.95,NW,322,4.0,5.0,78,0.00,,---,0.00,VWS V13.01,2013-02-03 15:47:00,
2013-02-03 09:52:00,9.0,3.3,29.95,NW,311,2.0,5.0,77,0.00,,---,0.00,VWS V13.01,2013-02-03 15:52:00,
2013-02-03 09:57:00,9.2,3.5,29.95,NW,318,4.0,5.0,77,0.00,,---,0.00,VWS V13.01,2013-02-03 15:57:00,
2013-02-03 10:03:00,9.3,3.3,29.95,WNW,300,2.0,3.0,76,0.00,,---,0.00,VWS V13.01,2013-02-03 16:03:00,
2013-02-03 10:07:00,9.3,3.0,29.95,NW,322,2.0,5.0,75,0.00,,---,0.00,VWS V13.01,2013-02-03 16:07:00,
2013-02-03 10:13:00,9.4,3.1,29.95,WNW,298,3.0,9.0,75,0.00,,---,0.00,VWS V13.01,2013-02-03 16:13:00,
2013-02-03 10:18:00,9.4,2.8,29.96,NW,312,3.0,9.0,74,0.00,,---,0.00,VWS V13.01,2013-02-03 16:18:00,
2013-02-03 10:23:00,9.4,2.8,29.95,WNW,290,3.0,9.0,74,0.00,,---,0.00,VWS V13.01,2013-02-03 16:23:00,
2013-02-03 10:28:00,9.6,2.7,29.96,NNW,342,4.0,9.0,73,0.00,,---,0.00,VWS V13.01,2013-02-03 16:28:00,
2013-02-03 10:33:00,9.6,2.1,29.96,NW,317,4.0,5.0,71,0.00,,---,0.00,VWS V13.01,2013-02-03 16:33:00,
2013-02-03 10:38:00,9.7,1.9,29.96,NNW,333,7.0,9.0,70,0.00,,---,0.00,VWS V13.01,2013-02-03 16:38:00,
2013-02-03 10:43:00,9.8,1.0,29.96,NW,310,6.0,9.0,67,0.00,,---,0.00,VWS V13.01,2013-02-03 16:43:00,
2013-02-03 10:48:00,9.9,0.8,29.96,NW,315,5.0,9.0,66,0.00,,---,0.00,VWS V13.01,2013-02-03 16:48:00,
2013-02-03 10:53:00,9.9,0.8,29.96,NW,325,4.0,9.0,66,0.00,,---,0.00,VWS V13.01,2013-02-03 16:53:00,
2013-02-03 10:58:00,9.7,1.0,29.97,NNW,336,5.0,9.0,67,0.00,,---,0.00,VWS V13.01,2013-02-03 16:58:00,
2013-02-03 11:03:00,9.6,1.2,29.97,NW,326,6.0,9.0,68,0.00,,---,0.00,VWS V13.01,2013-02-03 17:03:00,
2013-02-03 11:08:00,9.4,0.3,29.97,NW,321,3.0,9.0,66,0.00,,---,0.00,VWS V13.01,2013-02-03 17:08:00,
2013-02-03 11:13:00,9.7,0.3,29.97,NW,323,4.0,9.0,65,0.00,,---,0.00,VWS V13.01,2013-02-03 17:13:00,
2013-02-03 11:18:00,9.9,1.1,29.97,NW,324,6.0,9.0,67,0.00,,---,0.00,VWS V13.01,2013-02-03 17:18:00,
2013-02-03 11:23:00,9.6,2.1,29.97,NNW,327,4.0,9.0,71,0.00,,---,0.00,VWS V13.01,2013-02-03 17:23:00,
2013-02-03 11:28:00,9.4,1.3,29.97,NW,311,4.0,10.0,69,0.00,,---,0.00,VWS V13.01,2013-02-03 17:28:00,
2013-02-03 11:33:00,9.6,0.5,29.97,NNW,328,6.0,6.0,66,0.00,,---,0.00,VWS V13.01,2013-02-03 17:33:00,
2013-02-03 11:38:00,9.9,0.5,29.97,NNW,327,5.0,8.0,65,0.00,,---,0.00,VWS V13.01,2013-02-03 17:38:00,
2013-02-03 11:43:00,9.9,0.2,29.97,NW,323,5.0,8.0,64,0.00,,---,0.00,VWS V13.01,2013-02-03 17:43:00,
2013-02-03 11:48:00,9.9,0.5,29.97,NW,305,3.0,8.0,65,0.00,,---,0.00,VWS V13.01,2013-02-03 17:48:00,
2013-02-03 11:53:00,9.7,1.3,29.97,NW,313,6.0,8.0,68,0.00,,---,0.00,VWS V13.01,2013-02-03 17:53:00,
2013-02-03 11:58:00,9.5,0.1,29.97,NW,313,6.0,8.0,65,0.00,,---,0.00,VWS V13.01,2013-02-03 17:58:00,
2013-02-03 12:03:00,9.2,0.8,29.97,NW,323,5.0,6.0,68,0.00,,---,0.00,VWS V13.01,2013-02-03 18:03:00,
2013-02-03 12:08:00,8.9,1.1,29.97,NW,310,5.0,7.0,70,0.00,,---,0.00,VWS V13.01,2013-02-03 18:08:00,
2013-02-03 12:13:00,8.7,1.2,29.97,NW,321,4.0,7.0,71,0.00,,---,0.00,VWS V13.01,2013-02-03 18:13:00,
2013-02-03 12:18:00,8.4,1.2,29.97,NNW,331,3.0,7.0,72,0.00,,---,0.00,VWS V13.01,2013-02-03 18:18:00,
2013-02-03 12:23:00,8.2,1.4,29.97,WNW,302,5.0,7.0,73,0.00,,---,0.00,VWS V13.01,2013-02-03 18:23:00,
2013-02-03 12:28:00,8.1,1.5,29.97,NW,319,5.0,7.0,74,0.00,,---,0.00,VWS V13.01,2013-02-03 18:28:00,
2013-02-03 12:33:00,8.3,2.0,29.98,NNW,344,2.0,3.0,75,0.00,,---,0.00,VWS V13.01,2013-02-03 18:33:00,
2013-02-03 12:38:00,8.4,2.4,29.98,NNW,336,4.0,6.0,76,0.00,,---,0.00,VWS V13.01,2013-02-03 18:38:00,
2013-02-03 12:43:00,8.3,2.3,29.98,NNW,334,3.0,7.0,76,0.00,,---,0.00,VWS V13.01,2013-02-03 18:43:00,
2013-02-03 12:48:00,8.4,2.4,29.98,NW,321,4.0,7.0,76,0.00,,---,0.00,VWS V13.01,2013-02-03 18:48:00,
2013-02-03 12:53:00,8.4,2.1,29.98,NNW,327,4.0,7.0,75,0.00,,---,0.00,VWS V13.01,2013-02-03 18:53:00,
2013-02-03 12:58:00,8.5,1.9,29.98,NW,310,2.0,7.0,74,0.00,,---,0.00,VWS V13.01,2013-02-03 18:58:00,
2013-02-03 13:03:00,8.5,1.6,29.98,NW,316,4.0,5.0,73,0.00,,---,0.00,VWS V13.01,2013-02-03 19:03:00,
2013-02-03 13:08:00,8.5,1.0,29.98,NW,315,3.0,5.0,71,0.00,,---,0.00,VWS V13.01,2013-02-03 19:08:00,
2013-02-03 13:13:00,8.9,1.1,29.98,NNW,327,3.0,5.0,70,0.00,,---,0.00,VWS V13.01,2013-02-03 19:13:00,
2013-02-03 13:19:00,9.0,0.6,29.98,NNW,330,3.0,6.0,68,0.00,,---,0.00,VWS V13.01,2013-02-03 19:19:00,
2013-02-03 13:24:00,9.2,0.8,29.98,North,349,4.0,6.0,68,0.00,,---,0.00,VWS V13.01,2013-02-03 19:24:00,
2013-02-03 13:29:00,9.3,1.2,29.98,NW,312,4.0,8.0,69,0.00,,---,0.00,VWS V13.01,2013-02-03 19:29:00,
2013-02-03 13:34:00,9.3,0.6,29.98,NW,315,2.0,9.0,67,0.00,,---,0.00,VWS V13.01,2013-02-03 19:34:00,
2013-02-03 13:39:00,9.2,0.2,29.98,NW,307,3.0,9.0,66,0.00,,---,0.00,VWS V13.01,2013-02-03 19:39:00,
2013-02-03 13:44:00,9.0,-0.7,29.98,NW,313,5.0,9.0,64,0.00,,---,0.00,VWS V13.01,2013-02-03 19:44:00,
2013-02-03 13:49:00,9.1,-0.3,29.97,NW,321,5.0,9.0,65,0.00,,---,0.00,VWS V13.01,2013-02-03 19:49:00,
2013-02-03 13:54:00,8.9,-1.5,29.98,NW,323,4.0,10.0,62,0.00,,---,0.00,VWS V13.01,2013-02-03 19:54:00,
2013-02-03 13:59:00,9.0,-0.4,29.98,NW,315,4.0,10.0,65,0.00,,---,0.00,VWS V13.01,2013-02-03 19:59:00,
2013-02-03 14:04:00,8.9,-0.8,29.98,NW,319,7.0,7.0,64,0.00,,---,0.00,VWS V13.01,2013-02-03 20:04:00,
2013-02-03 14:09:00,9.1,-0.9,29.98,NW,313,9.0,9.0,63,0.00,,---,0.00,VWS V13.01,2013-02-03 20:09:00,
2013-02-03 14:14:00,9.2,-1.2,29.98,NW,315,2.0,9.0,62,0.00,,---,0.00,VWS V13.01,2013-02-03 20:14:00,
2013-02-03 14:19:00,9.9,0.5,29.98,WNW,290,2.0,9.0,65,0.00,,---,0.00,VWS V13.01,2013-02-03 20:19:00,
2013-02-03 14:24:00,9.5,0.1,29.99,NW,319,4.0,9.0,65,0.00,,---,0.00,VWS V13.01,2013-02-03 20:24:00,
2013-02-03 14:29:00,9.0,0.6,29.99,NW,306,2.0,9.0,68,0.00,,---,0.00,VWS V13.01,2013-02-03 20:29:00,
2013-02-03 14:34:00,8.7,-0.6,29.99,NW,315,7.0,7.0,65,0.00,,---,0.00,VWS V13.01,2013-02-03 20:34:00,
2013-02-03 14:39:00,8.4,-0.6,29.99,NW,321,3.0,7.0,66,0.00,,---,0.00,VWS V13.01,2013-02-03 20:39:00,
2013-02-03 14:44:00,8.1,-0.9,29.99,NW,321,3.0,7.0,66,0.00,,---,0.00,VWS V13.01,2013-02-03 20:44:00,
2013-02-03 14:49:00,8.0,-0.7,30.00,NW,309,2.0,7.0,67,0.00,,---,0.00,VWS V13.01,2013-02-03 20:49:00,
2013-02-03 14:54:00,7.9,-0.8,30.00,NW,317,3.0,7.0,67,0.00,,---,0.00,VWS V13.01,2013-02-03 20:54:00,
2013-02-03 14:59:00,8.0,-0.7,30.00,NW,321,1.0,7.0,67,0.00,,---,0.00,VWS V13.01,2013-02-03 20:59:00,
2013-02-03 15:04:00,8.1,-0.6,30.00,NW,319,2.0,4.0,67,0.00,,---,0.00,VWS V13.01,2013-02-03 21:04:00,
2013-02-03 15:09:00,8.2,-0.5,30.00,NW,314,4.0,6.0,67,0.00,,---,0.00,VWS V13.01,2013-02-03 21:09:00,
2013-02-03 15:14:00,8.2,-0.5,30.00,NW,313,2.0,6.0,67,0.00,,---,0.00,VWS V13.01,2013-02-03 21:14:00,
2013-02-03 15:19:00,8.2,-0.5,30.01,NW,321,3.0,6.0,67,0.00,,---,0.00,VWS V13.01,2013-02-03 21:19:00,
2013-02-03 15:24:00,8.0,-1.0,30.01,NW,311,4.0,6.0,66,0.00,,---,0.00,VWS V13.01,2013-02-03 21:24:00,
2013-02-03 15:29:00,7.9,-1.1,30.01,NW,314,4.0,6.0,66,0.00,,---,0.00,VWS V13.01,2013-02-03 21:29:00,
2013-02-03 15:34:00,7.7,-1.3,30.01,NW,311,4.0,5.0,66,0.00,,---,0.00,VWS V13.01,2013-02-03 21:34:00,
2013-02-03 15:39:00,7.5,-1.5,30.01,NW,304,3.0,6.0,66,0.00,,---,0.00,VWS V13.01,2013-02-03 21:39:00,
2013-02-03 15:44:00,7.6,-1.0,30.01,NW,317,2.0,6.0,67,0.00,,---,0.00,VWS V13.01,2013-02-03 21:44:00,
2013-02-03 15:49:00,7.6,-1.0,30.02,NNW,329,3.0,6.0,67,0.00,,---,0.00,VWS V13.01,2013-02-03 21:49:00,
2013-02-03 15:54:00,7.4,-1.2,30.02,NW,326,4.0,6.0,67,0.00,,---,0.00,VWS V13.01,2013-02-03 21:54:00,
2013-02-03 15:59:00,7.3,-1.7,30.02,NW,313,1.0,7.0,66,0.00,,---,0.00,VWS V13.01,2013-02-03 21:59:00,
2013-02-03 16:04:00,7.2,-1.8,30.02,NW,323,3.0,4.0,66,0.00,,---,0.00,VWS V13.01,2013-02-03 22:04:00,
2013-02-03 16:09:00,7.3,-1.7,30.02,NW,322,1.0,4.0,66,0.00,,---,0.00,VWS V13.01,2013-02-03 22:09:00,
2013-02-03 16:14:00,7.3,-1.3,30.02,NW,323,2.0,4.0,67,0.00,,---,0.00,VWS V13.01,2013-02-03 22:14:00,
2013-02-03 16:19:00,7.3,-1.3,30.02,NW,324,3.0,6.0,67,0.00,,---,0.00,VWS V13.01,2013-02-03 22:19:00,
2013-02-03 16:24:00,7.2,-1.4,30.02,NW,319,3.0,6.0,67,0.00,,---,0.00,VWS V13.01,2013-02-03 22:24:00,
2013-02-03 16:29:00,7.2,-1.1,30.02,NW,319,2.0,6.0,68,0.00,,---,0.00,VWS V13.01,2013-02-03 22:29:00,
2013-02-03 16:34:00,7.1,-1.2,30.02,NW,325,1.0,2.0,68,0.00,,---,0.00,VWS V13.01,2013-02-03 22:34:00,
2013-02-03 16:39:00,7.0,-1.3,30.03,NW,325,0.0,3.0,68,0.00,,---,0.00,VWS V13.01,2013-02-03 22:39:00,
2013-02-03 16:44:00,6.9,-1.7,30.03,NNW,337,3.0,4.0,67,0.00,,---,0.00,VWS V13.01,2013-02-03 22:44:00,
2013-02-03 16:49:00,6.6,-2.3,30.03,NW,317,2.0,5.0,66,0.00,,---,0.00,VWS V13.01,2013-02-03 22:49:00,
2013-02-03 16:54:00,6.4,-2.5,30.03,NW,317,1.0,5.0,66,0.00,,---,0.00,VWS V13.01,2013-02-03 22:54:00,
2013-02-03 16:59:00,6.2,-2.4,30.03,NW,317,1.0,5.0,67,0.00,,---,0.00,VWS V13.01,2013-02-03 22:59:00,
2013-02-03 17:04:00,5.9,-2.4,30.03,NW,317,2.0,2.0,68,0.00,,---,0.00,VWS V13.01,2013-02-03 23:04:00,
2013-02-03 17:09:00,5.7,-2.6,30.03,NW,317,1.0,2.0,68,0.00,,---,0.00,VWS V13.01,2013-02-03 23:09:00,
2013-02-03 17:14:00,5.5,-2.5,30.03,NW,317,2.0,3.0,69,0.00,,---,0.00,VWS V13.01,2013-02-03 23:14:00,
2013-02-03 17:19:00,5.3,-2.6,30.04,NW,317,1.0,3.0,69,0.00,,---,0.00,VWS V13.01,2013-02-03 23:19:00,
2013-02-03 17:24:00,5.1,-2.8,30.03,NW,317,2.0,3.0,69,0.00,,---,0.00,VWS V13.01,2013-02-03 23:24:00,
2013-02-03 17:29:00,5.0,-2.6,30.04,NW,317,1.0,3.0,70,0.00,,---,0.00,VWS V13.01,2013-02-03 23:29:00,
2013-02-03 17:34:00,4.8,-2.8,30.04,NW,317,0.0,1.0,70,0.00,,---,0.00,VWS V13.01,2013-02-03 23:34:00,
2013-02-03 17:39:00,4.5,-3.1,30.04,NW,317,0.0,1.0,70,0.00,,---,0.00,VWS V13.01,2013-02-03 23:39:00,
2013-02-03 17:44:00,4.3,-3.3,30.04,NW,317,0.0,1.0,70,0.00,,---,0.00,VWS V13.01,2013-02-03 23:44:00,
2013-02-03 17:49:00,4.2,-3.1,30.04,NW,317,0.0,1.0,71,0.00,,---,0.00,VWS V13.01,2013-02-03 23:49:00,
2013-02-03 17:54:00,4.0,-3.0,30.05,NW,317,0.0,2.0,72,0.00,,---,0.00,VWS V13.01,2013-02-03 23:54:00,
2013-02-03 17:59:00,4.0,-2.4,30.05,NW,315,0.0,2.0,74,0.00,,---,0.00,VWS V13.01,2013-02-03 23:59:00,
2013-02-03 18:04:00,4.1,-2.0,30.05,NW,316,0.0,2.0,75,0.00,,---,0.00,VWS V13.01,2013-02-04 00:04:00,
2013-02-03 18:09:00,4.2,-1.7,30.05,NW,315,2.0,2.0,76,0.00,,---,0.00,VWS V13.01,2013-02-04 00:09:00,
2013-02-03 18:15:00,4.2,-1.7,30.05,NW,314,0.0,2.0,76,0.00,,---,0.00,VWS V13.01,2013-02-04 00:15:00,
2013-02-03 18:20:00,4.3,-1.6,30.05,West,259,2.0,3.0,76,0.00,,---,0.00,VWS V13.01,2013-02-04 00:20:00,
2013-02-03 18:25:00,4.4,-1.2,30.05,West,259,0.0,3.0,77,0.00,,---,0.00,VWS V13.01,2013-02-04 00:25:00,
2013-02-03 18:30:00,4.5,-1.1,30.05,WSW,242,0.0,3.0,77,0.00,,---,0.00,VWS V13.01,2013-02-04 00:30:00,
2013-02-03 18:35:00,4.5,-1.4,30.05,West,263,1.0,1.0,76,0.00,,---,0.00,VWS V13.01,2013-02-04 00:35:00,
2013-02-03 18:40:00,4.5,-1.4,30.05,West,263,0.0,1.0,76,0.00,,---,0.00,VWS V13.01,2013-02-04 00:40:00,
2013-02-03 18:45:00,4.4,-1.8,30.05,West,263,0.0,2.0,75,0.00,,---,0.00,VWS V13.01,2013-02-04 00:45:00,
2013-02-03 18:50:00,4.3,-1.9,30.05,West,263,0.0,2.0,75,0.00,,---,0.00,VWS V13.01,2013-02-04 00:50:00,
2013-02-03 18:55:00,4.1,-2.0,30.05,West,263,0.0,2.0,75,0.00,,---,0.00,VWS V13.01,2013-02-04 00:55:00,
2013-02-03 19:00:00,4.0,-2.2,30.05,West,263,2.0,2.0,75,0.00,,---,0.00,VWS V13.01,2013-02-04 01:00:00,
2013-02-03 19:05:00,3.8,-2.3,30.05,West,263,0.0,2.0,75,0.00,,---,0.00,VWS V13.01,2013-02-04 01:05:00,
2013-02-03 19:10:00,3.8,-2.1,30.05,WSW,238,0.0,3.0,76,0.00,,---,0.00,VWS V13.01,2013-02-04 01:10:00,
2013-02-03 19:15:00,3.7,-2.2,30.05,WSW,238,0.0,3.0,76,0.00,,---,0.00,VWS V13.01,2013-02-04 01:15:00,
2013-02-03 19:20:00,3.5,-2.6,30.05,WSW,237,0.0,3.0,75,0.00,,---,0.00,VWS V13.01,2013-02-04 01:20:00,
2013-02-03 19:25:00,3.4,-2.7,30.05,WSW,240,0.0,3.0,75,0.00,,---,0.00,VWS V13.01,2013-02-04 01:25:00,
2013-02-03 19:30:00,3.2,-2.9,30.05,WSW,240,0.0,3.0,75,0.00,,---,0.00,VWS V13.01,2013-02-04 01:30:00,
2013-02-03 19:35:00,2.9,-3.2,30.04,WSW,240,0.0,0.0,75,0.00,,---,0.00,VWS V13.01,2013-02-04 01:35:00,
2013-02-03 19:40:00,2.8,-3.6,30.04,WSW,240,0.0,0.0,74,0.00,,---,0.00,VWS V13.01,2013-02-04 01:40:00,
2013-02-03 19:45:00,2.4,-4.0,30.04,WSW,240,0.0,0.0,74,0.00,,---,0.00,VWS V13.01,2013-02-04 01:45:00,
2013-02-03 19:50:00,2.2,-4.2,30.04,WSW,240,0.0,0.0,74,0.00,,---,0.00,VWS V13.01,2013-02-04 01:50:00,
2013-02-03 19:55:00,1.9,-4.2,30.04,WSW,240,0.0,0.0,75,0.00,,---,0.00,VWS V13.01,2013-02-04 01:55:00,
2013-02-03 20:00:00,1.7,-4.4,30.04,WSW,240,0.0,0.0,75,0.00,,---,0.00,VWS V13.01,2013-02-04 02:00:00,
2013-02-03 20:05:00,1.5,-4.6,30.04,WSW,240,0.0,0.0,75,0.00,,---,0.00,VWS V13.01,2013-02-04 02:05:00,
2013-02-03 20:10:00,1.3,-4.8,30.04,WSW,240,0.0,0.0,75,0.00,,---,0.00,VWS V13.01,2013-02-04 02:10:00,
2013-02-03 20:15:00,1.1,-5.0,30.04,WSW,240,0.0,1.0,75,0.00,,---,0.00,VWS V13.01,2013-02-04 02:15:00,
2013-02-03 20:20:00,0.9,-4.9,30.04,WSW,240,0.0,1.0,76,0.00,,---,0.00,VWS V13.01,2013-02-04 02:20:00,
2013-02-03 20:25:00,0.8,-5.0,30.04,WSW,240,0.0,1.0,76,0.00,,---,0.00,VWS V13.01,2013-02-04 02:25:00,
2013-02-03 20:30:00,0.6,-4.9,30.04,WSW,240,0.0,1.0,77,0.00,,---,0.00,VWS V13.01,2013-02-04 02:30:00,
2013-02-03 20:35:00,0.6,-4.6,30.04,WSW,240,0.0,0.0,78,0.00,,---,0.00,VWS V13.01,2013-02-04 02:35:00,
2013-02-03 20:40:00,0.4,-4.8,30.04,WSW,240,0.0,0.0,78,0.00,,---,0.00,VWS V13.01,2013-02-04 02:40:00,
2013-02-03 20:45:00,0.2,-5.0,30.04,WSW,240,0.0,0.0,78,0.00,,---,0.00,VWS V13.01,2013-02-04 02:45:00,
2013-02-03 20:50:00,0.1,-5.1,30.04,WSW,240,0.0,0.0,78,0.00,,---,0.00,VWS V13.01,2013-02-04 02:50:00,
2013-02-03 20:55:00,0.1,-5.2,30.04,WSW,240,0.0,0.0,78,0.00,,---,0.00,VWS V13.01,2013-02-04 02:55:00,
2013-02-03 21:00:00,-0.1,-5.3,30.04,WSW,240,0.0,0.0,78,0.00,,---,0.00,VWS V13.01,2013-02-04 03:00:00,
2013-02-03 21:05:00,-0.3,-5.5,30.05,WSW,240,0.0,0.0,78,0.00,,---,0.00,VWS V13.01,2013-02-04 03:05:00,
2013-02-03 21:10:00,-0.4,-5.3,30.05,WSW,240,0.0,0.0,79,0.00,,---,0.00,VWS V13.01,2013-02-04 03:10:00,
2013-02-03 21:15:00,-0.6,-5.5,30.05,WSW,240,0.0,0.0,79,0.00,,---,0.00,VWS V13.01,2013-02-04 03:15:00,
2013-02-03 21:20:00,-0.7,-5.6,30.05,WSW,240,0.0,0.0,79,0.00,,---,0.00,VWS V13.01,2013-02-04 03:20:00,
2013-02-03 21:25:00,-0.9,-5.8,30.05,WSW,240,0.0,0.0,79,0.00,,---,0.00,VWS V13.01,2013-02-04 03:25:00,
2013-02-03 21:30:00,-1.0,-5.7,30.04,WSW,240,0.0,0.0,80,0.00,,---,0.00,VWS V13.01,2013-02-04 03:30:00,
2013-02-03 21:35:00,-1.0,-5.9,30.05,WSW,240,0.0,0.0,79,0.00,,---,0.00,VWS V13.01,2013-02-04 03:35:00,
2013-02-03 21:40:00,-1.1,-6.0,30.05,WSW,240,0.0,0.0,79,0.00,,---,0.00,VWS V13.01,2013-02-04 03:40:00,
2013-02-03 21:45:00,-1.2,-5.9,30.05,WSW,240,0.0,0.0,80,0.00,,---,0.00,VWS V13.01,2013-02-04 03:45:00,
2013-02-03 21:50:00,-1.3,-6.0,30.05,WSW,240,0.0,0.0,80,0.00,,---,0.00,VWS V13.01,2013-02-04 03:50:00,
2013-02-03 21:55:00,-1.4,-6.1,30.05,WSW,240,0.0,0.0,80,0.00,,---,0.00,VWS V13.01,2013-02-04 03:55:00,
2013-02-03 22:00:00,-1.5,-6.2,30.05,WSW,240,0.0,0.0,80,0.00,,---,0.00,VWS V13.01,2013-02-04 04:00:00,
2013-02-03 22:05:00,-1.6,-6.2,30.05,WSW,240,0.0,0.0,80,0.00,,---,0.00,VWS V13.01,2013-02-04 04:05:00,
2013-02-03 22:10:00,-1.6,-6.2,30.05,WSW,240,0.0,0.0,80,0.00,,---,0.00,VWS V13.01,2013-02-04 04:10:00,
2013-02-03 22:15:00,-1.6,-6.0,30.05,WSW,240,0.0,0.0,81,0.00,,---,0.00,VWS V13.01,2013-02-04 04:15:00,
2013-02-03 22:20:00,-1.7,-6.1,30.05,WSW,240,0.0,0.0,81,0.00,,---,0.00,VWS V13.01,2013-02-04 04:20:00,
2013-02-03 22:25:00,-1.7,-6.1,30.05,WSW,240,0.0,0.0,81,0.00,,---,0.00,VWS V13.01,2013-02-04 04:25:00,
2013-02-03 22:30:00,-1.7,-6.1,30.05,WSW,240,0.0,0.0,81,0.00,,---,0.00,VWS V13.01,2013-02-04 04:30:00,
2013-02-03 22:35:00,-1.8,-6.2,30.05,WSW,240,0.0,0.0,81,0.00,,---,0.00,VWS V13.01,2013-02-04 04:35:00,
2013-02-03 22:40:00,-1.8,-6.2,30.05,WSW,240,0.0,1.0,81,0.00,,---,0.00,VWS V13.01,2013-02-04 04:40:00,
2013-02-03 22:45:00,-1.9,-6.3,30.05,WSW,240,0.0,1.0,81,0.00,,---,0.00,VWS V13.01,2013-02-04 04:45:00,
2013-02-03 22:50:00,-2.1,-6.5,30.05,WSW,240,0.0,1.0,81,0.00,,---,0.00,VWS V13.01,2013-02-04 04:50:00,
2013-02-03 22:55:00,-2.1,-6.5,30.05,WSW,240,0.0,1.0,81,0.00,,---,0.00,VWS V13.01,2013-02-04 04:55:00,
2013-02-03 23:01:00,-2.1,-6.5,30.05,WSW,240,0.0,1.0,81,0.00,,---,0.00,VWS V13.01,2013-02-04 05:01:00,
2013-02-03 23:03:00,-2.1,-6.5,30.05,WSW,240,0.0,0.0,81,0.00,,---,0.00,VWS V13.01,2013-02-04 05:03:00,
2013-02-03 23:04:00,-2.1,-6.5,30.05,WSW,240,0.0,0.0,81,0.00,,---,0.00,VWS V13.01,2013-02-04 05:04:00,
2013-02-03 23:09:00,-2.0,-6.1,30.05,WSW,240,0.0,0.0,82,0.00,,---,0.00,VWS V13.01,2013-02-04 05:09:00,
2013-02-03 23:14:00,-1.9,-6.0,30.05,WSW,240,0.0,0.0,82,0.00,,---,0.00,VWS V13.01,2013-02-04 05:14:00,
2013-02-03 23:19:00,-1.8,-5.9,30.06,WSW,240,0.0,0.0,82,0.00,,---,0.00,VWS V13.01,2013-02-04 05:19:00,
2013-02-03 23:24:00,-1.7,-5.8,30.06,WSW,240,0.0,0.0,82,0.00,,---,0.00,VWS V13.01,2013-02-04 05:24:00,
2013-02-03 23:29:00,-1.8,-5.9,30.06,WSW,240,0.0,0.0,82,0.00,,---,0.00,VWS V13.01,2013-02-04 05:29:00,
2013-02-03 23:34:00,-1.8,-5.9,30.06,WSW,240,0.0,0.0,82,0.00,,---,0.00,VWS V13.01,2013-02-04 05:34:00,
2013-02-03 23:39:00,-1.8,-5.9,30.06,WSW,240,0.0,0.0,82,0.00,,---,0.00,VWS V13.01,2013-02-04 05:39:00,
2013-02-03 23:44:00,-1.9,-6.3,30.06,WSW,240,0.0,1.0,81,0.00,,---,0.00,VWS V13.01,2013-02-04 05:44:00,
2013-02-03 23:49:00,-2.0,-6.4,30.06,WSW,240,0.0,1.0,81,0.00,,---,0.00,VWS V13.01,2013-02-04 05:49:00,
2013-02-03 23:54:00,-2.1,-6.5,30.06,WSW,240,0.0,1.0,81,0.00,,---,0.00,VWS V13.01,2013-02-04 05:54:00,
2013-02-03 23:59:00,-2.3,-6.9,30.06,WSW,240,0.0,1.0,80,0.00,,---,0.00,VWS V13.01,2013-02-04 05:59:00,